Time,TemperatureF,DewpointF,PressureIn,WindDirection,WindDirectionDegrees,WindSpeedMPH,WindSpeedGustMPH,Humidity,HourlyPrecipIn,Conditions,Clouds,dailyrainin,SoftwareType,DateUTC
2013-07-06 00:01:00,61.9,53.1,29.62,South,180,2.0,4.0,73,0.00,,,0.00,meteohub,2013-07-06 07:01:00,
2013-07-06 00:06:00,61.9,53.1,29.62,South,180,2.0,4.0,73,0.00,,,0.00,meteohub,2013-07-06 07:06:00,
2013-07-06 00:11:00,61.5,53.2,29.63,SW,225,1.0,4.0,74,0.00,,,0.00,meteohub,2013-07-06 07:11:00,
2013-07-06 00:16:00,61.3,53.1,29.62,South,180,2.0,2.0,74,0.00,,,0.00,meteohub,2013-07-06 07:16:00,
2013-07-06 00:21:00,61.3,53.1,29.62,South,180,2.0,2.0,74,0.00,,,0.00,meteohub,2013-07-06 07:21:00,
2013-07-06 00:26:00,61.2,53.2,29.62,SW,225,2.0,2.0,75,0.00,,,0.00,meteohub,2013-07-06 07:26:00,
2013-07-06 00:31:00,61.2,53.2,29.62,South,180,1.0,2.0,75,0.00,,,0.00,meteohub,2013-07-06 07:31:00,
2013-07-06 00:37:00,61.0,53.1,29.63,SE,135,1.0,2.0,75,0.00,,,0.00,meteohub,2013-07-06 07:37:00,
2013-07-06 00:42:00,60.8,53.2,29.62,SE,135,1.0,2.0,76,0.00,,,0.00,meteohub,2013-07-06 07:42:00,
2013-07-06 00:47:00,60.8,53.2,29.63,SW,225,1.0,2.0,76,0.00,,,0.00,meteohub,2013-07-06 07:47:00,
2013-07-06 00:52:00,60.8,53.2,29.63,South,180,2.0,2.0,76,0.00,,,0.00,meteohub,2013-07-06 07:52:00,
2013-07-06 00:57:00,60.6,53.1,29.63,SE,135,2.0,2.0,76,0.00,,,0.00,meteohub,2013-07-06 07:57:00,
2013-07-06 01:02:00,60.6,53.1,29.63,South,180,2.0,2.0,76,0.00,,,0.00,meteohub,2013-07-06 08:02:00,
2013-07-06 01:07:00,60.6,53.1,29.63,South,180,2.0,2.0,76,0.00,,,0.00,meteohub,2013-07-06 08:07:00,
2013-07-06 01:12:00,60.6,53.4,29.63,South,180,1.0,2.0,77,0.00,,,0.00,meteohub,2013-07-06 08:12:00,
2013-07-06 01:17:00,60.4,53.2,29.63,SW,225,1.0,2.0,77,0.00,,,0.00,meteohub,2013-07-06 08:17:00,
2013-07-06 01:22:00,60.4,53.2,29.63,South,180,1.0,2.0,77,0.00,,,0.00,meteohub,2013-07-06 08:22:00,
2013-07-06 01:27:00,60.3,53.1,29.63,East,90,1.0,2.0,77,0.00,,,0.00,meteohub,2013-07-06 08:27:00,
2013-07-06 01:32:00,60.3,53.1,29.63,SW,225,1.0,2.0,77,0.00,,,0.00,meteohub,2013-07-06 08:32:00,
2013-07-06 01:37:00,60.1,52.9,29.63,NE,45,1.0,2.0,77,0.00,,,0.00,meteohub,2013-07-06 08:37:00,
2013-07-06 01:42:00,60.1,53.2,29.63,SE,135,1.0,2.0,78,0.00,,,0.00,meteohub,2013-07-06 08:42:00,
2013-07-06 01:47:00,60.1,53.2,29.63,North,0,1.0,3.0,78,0.00,,,0.00,meteohub,2013-07-06 08:47:00,
2013-07-06 01:52:00,59.9,53.1,29.63,South,180,1.0,3.0,78,0.00,,,0.00,meteohub,2013-07-06 08:52:00,
2013-07-06 01:57:00,59.9,53.1,29.64,West,270,1.0,3.0,78,0.00,,,0.00,meteohub,2013-07-06 08:57:00,
2013-07-06 02:02:00,59.9,53.1,29.64,SE,135,1.0,2.0,78,0.00,,,0.00,meteohub,2013-07-06 09:02:00,
2013-07-06 02:07:00,59.9,53.1,29.64,SE,135,1.0,2.0,78,0.00,,,0.00,meteohub,2013-07-06 09:07:00,
2013-07-06 02:12:00,59.7,53.2,29.64,SW,225,0.0,2.0,79,0.00,,,0.00,meteohub,2013-07-06 09:12:00,
2013-07-06 02:17:00,59.7,53.2,29.64,SW,225,2.0,2.0,79,0.00,,,0.00,meteohub,2013-07-06 09:17:00,
2013-07-06 02:22:00,59.5,53.1,29.64,North,0,0.0,2.0,79,0.00,,,0.00,meteohub,2013-07-06 09:22:00,
2013-07-06 02:27:00,59.5,53.1,29.64,NE,45,0.0,2.0,79,0.00,,,0.00,meteohub,2013-07-06 09:27:00,
2013-07-06 02:32:00,59.5,53.4,29.65,North,0,1.0,2.0,80,0.00,,,0.00,meteohub,2013-07-06 09:32:00,
2013-07-06 02:37:00,59.5,53.4,29.65,East,90,0.0,1.0,80,0.00,,,0.00,meteohub,2013-07-06 09:37:00,
2013-07-06 02:42:00,59.5,53.4,29.64,NE,45,0.0,1.0,80,0.00,,,0.00,meteohub,2013-07-06 09:42:00,
2013-07-06 02:47:00,59.5,53.4,29.65,NE,45,1.0,1.0,80,0.00,,,0.00,meteohub,2013-07-06 09:47:00,
2013-07-06 02:52:00,59.4,53.2,29.65,NE,45,1.0,1.0,80,0.00,,,0.00,meteohub,2013-07-06 09:52:00,
2013-07-06 02:57:00,59.4,53.6,29.65,NE,45,1.0,1.0,81,0.00,,,0.00,meteohub,2013-07-06 09:57:00,
2013-07-06 03:02:00,59.4,53.6,29.65,East,90,1.0,1.0,81,0.00,,,0.00,meteohub,2013-07-06 10:02:00,
2013-07-06 03:07:00,59.4,53.6,29.65,NW,315,1.0,1.0,81,0.00,,,0.00,meteohub,2013-07-06 10:07:00,
2013-07-06 03:12:00,59.4,53.6,29.65,North,0,1.0,2.0,81,0.00,,,0.00,meteohub,2013-07-06 10:12:00,
2013-07-06 03:17:00,59.4,53.6,29.65,East,90,1.0,2.0,81,0.00,,,0.00,meteohub,2013-07-06 10:17:00,
2013-07-06 03:22:00,59.4,53.6,29.65,South,180,1.0,2.0,81,0.00,,,0.00,meteohub,2013-07-06 10:22:00,
2013-07-06 03:27:00,59.2,53.4,29.65,NE,45,0.0,2.0,81,0.00,,,0.00,meteohub,2013-07-06 10:27:00,
2013-07-06 03:33:00,59.2,53.4,29.65,NE,45,0.0,1.0,81,0.00,,,0.00,meteohub,2013-07-06 10:33:00,
2013-07-06 03:38:00,59.2,53.4,29.65,NE,45,1.0,2.0,81,0.00,,,0.00,meteohub,2013-07-06 10:38:00,
2013-07-06 03:43:00,59.2,53.6,29.65,NE,45,0.0,2.0,82,0.00,,,0.00,meteohub,2013-07-06 10:43:00,
2013-07-06 03:48:00,59.2,53.6,29.65,North,0,2.0,2.0,82,0.00,,,0.00,meteohub,2013-07-06 10:48:00,
2013-07-06 03:53:00,59.0,53.6,29.65,North,0,0.0,2.0,82,0.00,,,0.00,meteohub,2013-07-06 10:53:00,
2013-07-06 03:58:00,59.0,53.6,29.65,SW,225,0.0,2.0,82,0.00,,,0.00,meteohub,2013-07-06 10:58:00,
2013-07-06 04:03:00,59.0,53.6,29.65,SW,225,1.0,2.0,82,0.00,,,0.00,meteohub,2013-07-06 11:03:00,
2013-07-06 04:08:00,59.0,53.6,29.65,SW,225,1.0,1.0,82,0.00,,,0.00,meteohub,2013-07-06 11:08:00,
2013-07-06 04:13:00,59.0,53.6,29.66,South,180,1.0,1.0,82,0.00,,,0.00,meteohub,2013-07-06 11:13:00,
2013-07-06 04:18:00,59.0,53.6,29.66,West,270,1.0,1.0,82,0.00,,,0.00,meteohub,2013-07-06 11:18:00,
2013-07-06 04:23:00,58.8,53.4,29.66,West,270,0.0,1.0,82,0.00,,,0.00,meteohub,2013-07-06 11:23:00,
2013-07-06 04:28:00,58.8,53.4,29.66,NE,45,2.0,2.0,82,0.00,,,0.00,meteohub,2013-07-06 11:28:00,
2013-07-06 04:33:00,58.6,53.4,29.66,SW,225,2.0,2.0,83,0.00,,,0.00,meteohub,2013-07-06 11:33:00,
2013-07-06 04:39:00,58.6,53.4,29.66,SW,225,2.0,2.0,83,0.00,,,0.00,meteohub,2013-07-06 11:39:00,
2013-07-06 04:44:00,58.6,53.4,29.66,South,180,1.0,2.0,83,0.00,,,0.00,meteohub,2013-07-06 11:44:00,
2013-07-06 04:49:00,58.5,53.2,29.66,South,180,1.0,2.0,83,0.00,,,0.00,meteohub,2013-07-06 11:49:00,
2013-07-06 04:54:00,58.5,53.2,29.66,West,270,0.0,2.0,83,0.00,,,0.00,meteohub,2013-07-06 11:54:00,
2013-07-06 04:59:00,58.5,53.2,29.66,NE,45,0.0,2.0,83,0.00,,,0.00,meteohub,2013-07-06 11:59:00,
2013-07-06 05:04:00,58.5,53.2,29.66,NE,45,0.0,2.0,83,0.00,,,0.00,meteohub,2013-07-06 12:04:00,
2013-07-06 05:09:00,58.3,53.1,29.66,SW,225,0.0,2.0,83,0.00,,,0.00,meteohub,2013-07-06 12:09:00,
2013-07-06 05:14:00,58.3,53.1,29.66,SW,225,2.0,2.0,83,0.00,,,0.00,meteohub,2013-07-06 12:14:00,
2013-07-06 05:19:00,58.3,53.4,29.67,South,180,0.0,2.0,84,0.00,,,0.00,meteohub,2013-07-06 12:19:00,
2013-07-06 05:24:00,58.1,53.2,29.67,SW,225,0.0,2.0,84,0.00,,,0.00,meteohub,2013-07-06 12:24:00,
2013-07-06 05:29:00,58.1,53.2,29.67,SW,225,0.0,2.0,84,0.00,,,0.00,meteohub,2013-07-06 12:29:00,
2013-07-06 05:34:00,57.9,53.1,29.67,West,270,0.0,0.0,84,0.00,,,0.00,meteohub,2013-07-06 12:34:00,
2013-07-06 05:39:00,57.9,53.1,29.67,West,270,0.0,0.0,84,0.00,,,0.00,meteohub,2013-07-06 12:39:00,
2013-07-06 05:45:00,57.7,52.9,29.67,West,270,0.0,0.0,84,0.00,,,0.00,meteohub,2013-07-06 12:45:00,
2013-07-06 05:50:00,57.7,52.9,29.67,West,270,0.0,0.0,84,0.00,,,0.00,meteohub,2013-07-06 12:50:00,
2013-07-06 05:55:00,57.7,53.2,29.67,West,270,1.0,0.0,85,0.00,,,0.00,meteohub,2013-07-06 12:55:00,
2013-07-06 06:00:00,57.6,53.1,29.67,South,180,0.0,1.0,85,0.00,,,0.00,meteohub,2013-07-06 13:00:00,
2013-07-06 06:05:00,57.6,53.1,29.68,South,180,1.0,2.0,85,0.00,,,0.00,meteohub,2013-07-06 13:05:00,
2013-07-06 06:10:00,57.6,53.1,29.68,SW,225,0.0,2.0,85,0.00,,,0.00,meteohub,2013-07-06 13:10:00,
2013-07-06 06:15:00,57.7,53.2,29.68,SW,225,1.0,1.0,85,0.00,,,0.00,meteohub,2013-07-06 13:15:00,
2013-07-06 06:20:00,57.7,53.2,29.68,SW,225,0.0,1.0,85,0.00,,,0.00,meteohub,2013-07-06 13:20:00,
2013-07-06 06:25:00,57.7,53.6,29.68,SW,225,1.0,1.0,86,0.00,,,0.00,meteohub,2013-07-06 13:25:00,
2013-07-06 06:30:00,57.7,53.6,29.68,SW,225,0.0,1.0,86,0.00,,,0.00,meteohub,2013-07-06 13:30:00,
2013-07-06 06:35:00,57.9,53.8,29.68,SW,225,0.0,1.0,86,0.00,,,0.00,meteohub,2013-07-06 13:35:00,
2013-07-06 06:40:00,58.1,54.0,29.68,SW,225,0.0,1.0,86,0.00,,,0.00,meteohub,2013-07-06 13:40:00,
2013-07-06 06:45:00,58.3,54.1,29.68,SW,225,0.0,1.0,86,0.00,,,0.00,meteohub,2013-07-06 13:45:00,
2013-07-06 06:51:00,58.5,54.3,29.68,SW,225,0.0,1.0,86,0.00,,,0.00,meteohub,2013-07-06 13:51:00,
2013-07-06 06:56:00,58.6,54.5,29.68,SE,135,1.0,1.0,86,0.00,,,0.00,meteohub,2013-07-06 13:56:00,
2013-07-06 07:01:00,58.8,54.7,29.69,South,180,0.0,1.0,86,0.00,,,0.00,meteohub,2013-07-06 14:01:00,
2013-07-06 07:06:00,59.2,55.0,29.68,SW,225,0.0,2.0,86,0.00,,,0.00,meteohub,2013-07-06 14:06:00,
2013-07-06 07:11:00,59.5,55.4,29.69,SW,225,0.0,2.0,86,0.00,,,0.00,meteohub,2013-07-06 14:11:00,
2013-07-06 07:16:00,59.7,55.6,29.69,North,0,0.0,2.0,86,0.00,,,0.00,meteohub,2013-07-06 14:16:00,
2013-07-06 07:21:00,60.1,55.6,29.69,SW,225,0.0,1.0,85,0.00,,,0.00,meteohub,2013-07-06 14:21:00,
2013-07-06 07:26:00,60.4,55.9,29.69,NW,315,0.0,1.0,85,0.00,,,0.00,meteohub,2013-07-06 14:26:00,
2013-07-06 07:31:00,57.7,52.9,29.69,NW,315,1.0,1.0,84,0.00,,,0.00,meteohub,2013-07-06 14:31:00,
2013-07-06 07:36:00,61.3,56.5,29.69,SW,225,0.0,1.0,84,0.00,,,0.00,meteohub,2013-07-06 14:36:00,
2013-07-06 07:41:00,61.7,56.5,29.69,NE,45,2.0,2.0,83,0.00,,,0.00,meteohub,2013-07-06 14:41:00,
2013-07-06 07:46:00,62.1,56.8,29.69,SW,225,1.0,2.0,83,0.00,,,0.00,meteohub,2013-07-06 14:46:00,
2013-07-06 07:51:00,62.4,56.8,29.69,NW,315,1.0,2.0,82,0.00,,,0.00,meteohub,2013-07-06 14:51:00,
2013-07-06 07:56:00,63.0,57.4,29.69,NE,45,1.0,2.0,82,0.00,,,0.00,meteohub,2013-07-06 14:56:00,
2013-07-06 08:02:00,63.5,57.6,29.70,SW,225,1.0,2.0,81,0.00,,,0.00,meteohub,2013-07-06 15:02:00,
2013-07-06 08:07:00,64.0,57.7,29.70,SW,225,2.0,2.0,80,0.00,,,0.00,meteohub,2013-07-06 15:07:00,
2013-07-06 08:12:00,64.4,58.1,29.70,SE,135,1.0,2.0,80,0.00,,,0.00,meteohub,2013-07-06 15:12:00,
2013-07-06 08:17:00,65.3,58.6,29.71,West,270,3.0,3.0,79,0.00,,,0.00,meteohub,2013-07-06 15:17:00,
2013-07-06 08:22:00,65.8,58.5,29.70,SW,225,2.0,3.0,77,0.00,,,0.00,meteohub,2013-07-06 15:22:00,
2013-07-06 08:27:00,66.6,58.8,29.70,NE,45,2.0,3.0,76,0.00,,,0.00,meteohub,2013-07-06 15:27:00,
2013-07-06 08:32:00,67.1,58.8,29.70,SE,135,2.0,3.0,75,0.00,,,0.00,meteohub,2013-07-06 15:32:00,
2013-07-06 08:37:00,67.6,59.0,29.71,South,180,2.0,2.0,74,0.00,,,0.00,meteohub,2013-07-06 15:37:00,
2013-07-06 08:42:00,68.4,59.4,29.71,South,180,2.0,2.0,73,0.00,,,0.00,meteohub,2013-07-06 15:42:00,
2013-07-06 08:47:00,69.1,59.7,29.71,North,0,2.0,2.0,72,0.00,,,0.00,meteohub,2013-07-06 15:47:00,
2013-07-06 08:52:00,69.6,59.7,29.71,South,180,2.0,2.0,71,0.00,,,0.00,meteohub,2013-07-06 15:52:00,
2013-07-06 08:57:00,70.3,60.1,29.71,SE,135,2.0,2.0,70,0.00,,,0.00,meteohub,2013-07-06 15:57:00,
2013-07-06 09:02:00,71.1,59.9,29.71,South,180,2.0,2.0,68,0.00,,,0.00,meteohub,2013-07-06 16:02:00,
2013-07-06 09:07:00,72.0,60.4,29.71,SW,225,2.0,2.0,67,0.00,,,0.00,meteohub,2013-07-06 16:07:00,
2013-07-06 09:12:00,72.3,60.3,29.71,NW,315,2.0,2.0,66,0.00,,,0.00,meteohub,2013-07-06 16:12:00,
2013-07-06 09:17:00,72.7,60.3,29.71,West,270,2.0,2.0,65,0.00,,,0.00,meteohub,2013-07-06 16:17:00,
2013-07-06 09:23:00,73.2,60.3,29.71,West,270,2.0,2.0,64,0.00,,,0.00,meteohub,2013-07-06 16:23:00,
2013-07-06 09:28:00,73.8,60.4,29.71,SE,135,2.0,2.0,63,0.00,,,0.00,meteohub,2013-07-06 16:28:00,
2013-07-06 09:34:00,74.7,60.8,29.71,East,90,2.0,3.0,62,0.00,,,0.00,meteohub,2013-07-06 16:34:00,
2013-07-06 09:39:00,75.7,61.3,29.71,North,0,2.0,3.0,61,0.00,,,0.00,meteohub,2013-07-06 16:39:00,
2013-07-06 09:45:00,76.3,61.3,29.71,NW,315,1.0,3.0,60,0.00,,,0.00,meteohub,2013-07-06 16:45:00,
2013-07-06 09:50:00,76.6,60.8,29.71,North,0,2.0,2.0,58,0.00,,,0.00,meteohub,2013-07-06 16:50:00,
2013-07-06 09:55:00,76.8,61.0,29.71,SW,225,2.0,2.0,58,0.00,,,0.00,meteohub,2013-07-06 16:55:00,
2013-07-06 10:01:00,77.4,61.3,29.71,SW,225,2.0,3.0,58,0.00,,,0.00,meteohub,2013-07-06 17:01:00,
2013-07-06 10:06:00,78.1,61.2,29.71,South,180,2.0,3.0,56,0.00,,,0.00,meteohub,2013-07-06 17:06:00,
2013-07-06 10:11:00,78.4,61.0,29.71,South,180,1.0,2.0,55,0.00,,,0.00,meteohub,2013-07-06 17:11:00,
2013-07-06 10:16:00,78.8,61.3,29.71,South,180,2.0,2.0,55,0.00,,,0.00,meteohub,2013-07-06 17:16:00,
2013-07-06 10:22:00,79.3,60.8,29.71,South,180,1.0,2.0,53,0.00,,,0.00,meteohub,2013-07-06 17:22:00,
2013-07-06 10:27:00,79.3,60.8,29.71,SW,225,2.0,3.0,53,0.00,,,0.00,meteohub,2013-07-06 17:27:00,
2013-07-06 10:32:00,79.7,61.5,29.70,NW,315,2.0,3.0,54,0.00,,,0.00,meteohub,2013-07-06 17:32:00,
2013-07-06 10:37:00,80.1,61.3,29.70,West,270,2.0,3.0,53,0.00,,,0.00,meteohub,2013-07-06 17:37:00,
2013-07-06 10:43:00,80.6,61.9,29.71,SW,225,2.0,3.0,53,0.00,,,0.00,meteohub,2013-07-06 17:43:00,
2013-07-06 10:48:00,81.1,61.9,29.71,SE,135,2.0,3.0,52,0.00,,,0.00,meteohub,2013-07-06 17:48:00,
2013-07-06 10:54:00,81.7,61.9,29.71,South,180,2.0,3.0,51,0.00,,,0.00,meteohub,2013-07-06 17:54:00,
2013-07-06 11:00:00,82.0,61.5,29.71,SW,225,2.0,3.0,50,0.00,,,0.00,meteohub,2013-07-06 18:00:00,
2013-07-06 11:05:00,82.6,61.5,29.71,South,180,2.0,3.0,49,0.00,,,0.00,meteohub,2013-07-06 18:05:00,
2013-07-06 11:11:00,82.9,61.9,29.71,West,270,2.0,3.0,49,0.00,,,0.00,meteohub,2013-07-06 18:11:00,
2013-07-06 11:16:00,83.3,61.5,29.71,West,270,3.0,4.0,48,0.00,,,0.00,meteohub,2013-07-06 18:16:00,
2013-07-06 11:22:00,83.7,61.9,29.71,South,180,2.0,4.0,48,0.00,,,0.00,meteohub,2013-07-06 18:22:00,
2013-07-06 11:27:00,83.8,61.5,29.70,SE,135,2.0,4.0,47,0.00,,,0.00,meteohub,2013-07-06 18:27:00,
2013-07-06 11:32:00,84.2,61.2,29.71,West,270,2.0,3.0,46,0.00,,,0.00,meteohub,2013-07-06 18:32:00,
2013-07-06 11:37:00,84.7,62.2,29.71,SW,225,2.0,3.0,47,0.00,,,0.00,meteohub,2013-07-06 18:37:00,
2013-07-06 11:42:00,85.5,62.2,29.71,North,0,2.0,2.0,46,0.00,,,0.00,meteohub,2013-07-06 18:42:00,
2013-07-06 11:48:00,85.6,61.9,29.71,SE,135,2.0,2.0,45,0.00,,,0.00,meteohub,2013-07-06 18:48:00,
2013-07-06 11:54:00,85.6,61.9,29.71,SW,225,2.0,2.0,45,0.00,,,0.00,meteohub,2013-07-06 18:54:00,
2013-07-06 12:00:00,86.5,62.6,29.71,SE,135,2.0,4.0,45,0.00,,,0.00,meteohub,2013-07-06 19:00:00,
2013-07-06 12:05:00,86.9,61.7,29.71,SW,225,3.0,4.0,43,0.00,,,0.00,meteohub,2013-07-06 19:05:00,
2013-07-06 12:10:00,87.1,61.9,29.71,South,180,2.0,3.0,43,0.00,,,0.00,meteohub,2013-07-06 19:10:00,
2013-07-06 12:16:00,87.1,61.9,29.71,South,180,2.0,3.0,43,0.00,,,0.00,meteohub,2013-07-06 19:16:00,
2013-07-06 12:21:00,87.4,61.5,29.71,NW,315,2.0,3.0,42,0.00,,,0.00,meteohub,2013-07-06 19:21:00,
2013-07-06 12:27:00,87.4,61.5,29.70,South,180,2.0,3.0,42,0.00,,,0.00,meteohub,2013-07-06 19:27:00,
2013-07-06 12:32:00,87.6,61.7,29.70,West,270,2.0,3.0,42,0.00,,,0.00,meteohub,2013-07-06 19:32:00,
2013-07-06 12:37:00,87.8,61.2,29.70,NW,315,2.0,3.0,41,0.00,,,0.00,meteohub,2013-07-06 19:37:00,
2013-07-06 12:42:00,88.0,62.1,29.70,SW,225,2.0,3.0,42,0.00,,,0.00,meteohub,2013-07-06 19:42:00,
2013-07-06 12:47:00,88.3,61.7,29.70,West,270,2.0,4.0,41,0.00,,,0.00,meteohub,2013-07-06 19:47:00,
2013-07-06 12:52:00,88.9,60.8,29.70,North,0,3.0,4.0,39,0.00,,,0.00,meteohub,2013-07-06 19:52:00,
2013-07-06 12:57:00,89.2,61.7,29.69,North,0,2.0,4.0,40,0.00,,,0.00,meteohub,2013-07-06 19:57:00,
2013-07-06 13:02:00,89.4,61.2,29.69,SW,225,2.0,4.0,39,0.00,,,0.00,meteohub,2013-07-06 20:02:00,
2013-07-06 13:08:00,90.1,61.9,29.69,West,270,2.0,4.0,39,0.00,,,0.00,meteohub,2013-07-06 20:08:00,
2013-07-06 13:14:00,90.5,61.3,29.70,SW,225,3.0,4.0,38,0.00,,,0.00,meteohub,2013-07-06 20:14:00,
2013-07-06 13:19:00,90.5,61.3,29.69,East,90,2.0,3.0,38,0.00,,,0.00,meteohub,2013-07-06 20:19:00,
2013-07-06 13:24:00,90.7,61.5,29.69,South,180,2.0,3.0,38,0.00,,,0.00,meteohub,2013-07-06 20:24:00,
2013-07-06 13:29:00,90.9,61.7,29.69,West,270,2.0,3.0,38,0.00,,,0.00,meteohub,2013-07-06 20:29:00,
2013-07-06 13:36:00,91.4,62.2,29.69,West,270,2.0,2.0,38,0.00,,,0.00,meteohub,2013-07-06 20:36:00,
2013-07-06 13:42:00,91.6,60.1,29.69,South,180,4.0,4.0,35,0.00,,,0.00,meteohub,2013-07-06 20:42:00,
2013-07-06 13:47:00,91.8,61.0,29.68,South,180,2.0,4.0,36,0.00,,,0.00,meteohub,2013-07-06 20:47:00,
2013-07-06 13:52:00,92.1,60.4,29.68,SW,225,2.0,4.0,35,0.00,,,0.00,meteohub,2013-07-06 20:52:00,
2013-07-06 13:58:00,92.5,60.8,29.68,West,270,2.0,4.0,35,0.00,,,0.00,meteohub,2013-07-06 20:58:00,
2013-07-06 14:03:00,92.5,60.1,29.68,SW,225,3.0,3.0,34,0.00,,,0.00,meteohub,2013-07-06 21:03:00,
2013-07-06 14:08:00,92.7,59.4,29.68,North,0,4.0,4.0,33,0.00,,,0.00,meteohub,2013-07-06 21:08:00,
2013-07-06 14:13:00,92.7,61.0,29.68,West,270,2.0,4.0,35,0.00,,,0.00,meteohub,2013-07-06 21:13:00,
2013-07-06 14:18:00,93.0,59.7,29.68,NNW,338,2.0,4.0,33,0.00,,,0.00,meteohub,2013-07-06 21:18:00,
2013-07-06 14:24:00,93.2,59.9,29.67,South,180,2.0,4.0,33,0.00,,,0.00,meteohub,2013-07-06 21:24:00,
2013-07-06 14:29:00,93.4,60.8,29.67,SW,225,3.0,3.0,34,0.00,,,0.00,meteohub,2013-07-06 21:29:00,
2013-07-06 14:35:00,93.4,60.8,29.67,West,270,3.0,3.0,34,0.00,,,0.00,meteohub,2013-07-06 21:35:00,
2013-07-06 14:41:00,93.0,60.4,29.67,ESE,113,2.0,4.0,34,0.00,,,0.00,meteohub,2013-07-06 21:41:00,
2013-07-06 14:47:00,93.6,61.0,29.66,South,180,2.0,4.0,34,0.00,,,0.00,meteohub,2013-07-06 21:47:00,
2013-07-06 14:52:00,94.3,60.8,29.66,NNW,338,2.0,4.0,33,0.00,,,0.00,meteohub,2013-07-06 21:52:00,
2013-07-06 14:57:00,94.5,61.7,29.66,North,0,2.0,3.0,34,0.00,,,0.00,meteohub,2013-07-06 21:57:00,
2013-07-06 15:02:00,94.6,61.0,29.66,South,180,3.0,4.0,33,0.00,,,0.00,meteohub,2013-07-06 22:02:00,
2013-07-06 15:08:00,94.3,61.5,29.66,West,270,2.0,4.0,34,0.00,,,0.00,meteohub,2013-07-06 22:08:00,
2013-07-06 15:13:00,94.3,61.5,29.66,SW,225,2.0,4.0,34,0.00,,,0.00,meteohub,2013-07-06 22:13:00,
2013-07-06 15:20:00,94.1,61.5,29.66,NW,315,3.0,3.0,34,0.00,,,0.00,meteohub,2013-07-06 22:20:00,
2013-07-06 15:25:00,94.3,62.4,29.66,SE,135,2.0,3.0,35,0.00,,,0.00,meteohub,2013-07-06 22:25:00,
2013-07-06 15:31:00,94.3,61.5,29.66,North,0,2.0,3.0,34,0.00,,,0.00,meteohub,2013-07-06 22:31:00,
2013-07-06 15:36:00,94.3,62.4,29.65,SW,225,2.0,3.0,35,0.00,,,0.00,meteohub,2013-07-06 22:36:00,
2013-07-06 15:42:00,94.5,62.6,29.65,SW,225,2.0,3.0,35,0.00,,,0.00,meteohub,2013-07-06 22:42:00,
2013-07-06 15:47:00,94.3,62.4,29.66,SW,225,2.0,4.0,35,0.00,,,0.00,meteohub,2013-07-06 22:47:00,
2013-07-06 15:52:00,94.3,62.4,29.65,South,180,2.0,4.0,35,0.00,,,0.00,meteohub,2013-07-06 22:52:00,
2013-07-06 15:57:00,94.1,61.5,29.65,South,180,2.0,4.0,34,0.00,,,0.00,meteohub,2013-07-06 22:57:00,
2013-07-06 16:03:00,93.6,61.7,29.65,SE,135,2.0,4.0,35,0.00,,,0.00,meteohub,2013-07-06 23:03:00,
2013-07-06 16:08:00,93.4,61.7,29.65,SE,135,2.0,4.0,35,0.00,,,0.00,meteohub,2013-07-06 23:08:00,
2013-07-06 16:14:00,93.0,61.3,29.65,SW,225,2.0,4.0,35,0.00,,,0.00,meteohub,2013-07-06 23:14:00,
2013-07-06 16:19:00,92.7,61.9,29.65,West,270,2.0,3.0,36,0.00,,,0.00,meteohub,2013-07-06 23:19:00,
2013-07-06 16:24:00,92.5,61.7,29.65,NW,315,2.0,3.0,36,0.00,,,0.00,meteohub,2013-07-06 23:24:00,
2013-07-06 16:29:00,92.1,61.3,29.65,West,270,2.0,3.0,36,0.00,,,0.00,meteohub,2013-07-06 23:29:00,
2013-07-06 16:35:00,91.9,60.4,29.64,NE,45,2.0,2.0,35,0.00,,,0.00,meteohub,2013-07-06 23:35:00,
2013-07-06 16:40:00,91.6,60.1,29.65,South,180,2.0,3.0,35,0.00,,,0.00,meteohub,2013-07-06 23:40:00,
2013-07-06 16:45:00,91.4,60.6,29.64,SW,225,2.0,3.0,36,0.00,,,0.00,meteohub,2013-07-06 23:45:00,
2013-07-06 16:51:00,90.9,61.0,29.64,NW,315,2.0,3.0,37,0.00,,,0.00,meteohub,2013-07-06 23:51:00,
2013-07-06 16:56:00,90.7,60.1,29.64,NW,315,2.0,2.0,36,0.00,,,0.00,meteohub,2013-07-06 23:56:00,
2013-07-06 17:01:00,90.7,60.1,29.63,SW,225,2.0,2.0,36,0.00,,,0.00,meteohub,2013-07-07 00:01:00,
2013-07-06 17:06:00,90.3,59.7,29.64,South,180,2.0,2.0,36,0.00,,,0.00,meteohub,2013-07-07 00:06:00,
2013-07-06 17:11:00,89.8,60.1,29.63,South,180,2.0,3.0,37,0.00,,,0.00,meteohub,2013-07-07 00:11:00,
2013-07-06 17:17:00,89.2,59.5,29.63,SW,225,2.0,3.0,37,0.00,,,0.00,meteohub,2013-07-07 00:17:00,
2013-07-06 17:22:00,88.3,59.5,29.63,SW,225,2.0,2.0,38,0.00,,,0.00,meteohub,2013-07-07 00:22:00,
2013-07-06 17:27:00,88.0,59.2,29.63,SW,225,2.0,2.0,38,0.00,,,0.00,meteohub,2013-07-07 00:27:00,
2013-07-06 17:32:00,87.6,59.5,29.63,South,180,2.0,2.0,39,0.00,,,0.00,meteohub,2013-07-07 00:32:00,
2013-07-06 17:37:00,86.9,59.7,29.63,SW,225,2.0,3.0,40,0.00,,,0.00,meteohub,2013-07-07 00:37:00,
2013-07-06 17:42:00,86.5,59.4,29.62,SE,135,2.0,3.0,40,0.00,,,0.00,meteohub,2013-07-07 00:42:00,
2013-07-06 17:48:00,86.0,59.5,29.62,SW,225,2.0,3.0,41,0.00,,,0.00,meteohub,2013-07-07 00:48:00,
2013-07-06 17:53:00,85.8,59.4,29.62,NW,315,2.0,3.0,41,0.00,,,0.00,meteohub,2013-07-07 00:53:00,
2013-07-06 17:58:00,85.5,59.7,29.62,East,90,2.0,3.0,42,0.00,,,0.00,meteohub,2013-07-07 00:58:00,
2013-07-06 18:03:00,85.1,59.4,29.62,East,90,2.0,3.0,42,0.00,,,0.00,meteohub,2013-07-07 01:03:00,
2013-07-06 18:08:00,84.7,59.2,29.62,SW,225,2.0,3.0,42,0.00,,,0.00,meteohub,2013-07-07 01:08:00,
2013-07-06 18:14:00,84.4,58.8,29.62,SW,225,2.0,3.0,42,0.00,,,0.00,meteohub,2013-07-07 01:14:00,
2013-07-06 18:20:00,84.0,59.7,29.62,South,180,2.0,3.0,44,0.00,,,0.00,meteohub,2013-07-07 01:20:00,
2013-07-06 18:25:00,83.7,59.4,29.62,West,270,2.0,2.0,44,0.00,,,0.00,meteohub,2013-07-07 01:25:00,
2013-07-06 18:31:00,83.5,59.4,29.62,SW,225,3.0,3.0,44,0.00,,,0.00,meteohub,2013-07-07 01:31:00,
2013-07-06 18:36:00,83.3,59.7,29.62,SW,225,2.0,3.0,45,0.00,,,0.00,meteohub,2013-07-07 01:36:00,
2013-07-06 18:41:00,82.9,59.4,29.62,SW,225,2.0,3.0,45,0.00,,,0.00,meteohub,2013-07-07 01:41:00,
2013-07-06 18:47:00,82.8,59.2,29.62,SW,225,2.0,3.0,45,0.00,,,0.00,meteohub,2013-07-07 01:47:00,
2013-07-06 18:52:00,82.6,59.7,29.62,SW,225,2.0,2.0,46,0.00,,,0.00,meteohub,2013-07-07 01:52:00,
2013-07-06 18:57:00,82.4,59.0,29.62,West,270,2.0,2.0,45,0.00,,,0.00,meteohub,2013-07-07 01:57:00,
2013-07-06 19:02:00,81.9,59.0,29.62,West,270,1.0,2.0,46,0.00,,,0.00,meteohub,2013-07-07 02:02:00,
2013-07-06 19:07:00,81.5,58.6,29.62,South,180,2.0,2.0,46,0.00,,,0.00,meteohub,2013-07-07 02:07:00,
2013-07-06 19:13:00,81.0,58.3,29.62,South,180,1.0,2.0,46,0.00,,,0.00,meteohub,2013-07-07 02:13:00,
2013-07-06 19:19:00,80.2,58.1,29.62,NW,315,2.0,2.0,47,0.00,,,0.00,meteohub,2013-07-07 02:19:00,
2013-07-06 19:24:00,79.9,57.9,29.62,SW,225,2.0,2.0,47,0.00,,,0.00,meteohub,2013-07-07 02:24:00,
2013-07-06 19:30:00,79.3,57.9,29.62,NW,315,2.0,2.0,48,0.00,,,0.00,meteohub,2013-07-07 02:30:00,
2013-07-06 19:35:00,78.8,57.4,29.62,NE,45,2.0,2.0,48,0.00,,,0.00,meteohub,2013-07-07 02:35:00,
2013-07-06 19:40:00,78.4,57.2,29.62,SE,135,2.0,2.0,48,0.00,,,0.00,meteohub,2013-07-07 02:40:00,
2013-07-06 19:46:00,77.9,57.2,29.62,SW,225,1.0,2.0,49,0.00,,,0.00,meteohub,2013-07-07 02:46:00,
2013-07-06 19:51:00,77.4,56.7,29.62,NE,45,2.0,2.0,49,0.00,,,0.00,meteohub,2013-07-07 02:51:00,
2013-07-06 19:57:00,76.8,56.8,29.62,SE,135,2.0,2.0,50,0.00,,,0.00,meteohub,2013-07-07 02:57:00,
2013-07-06 20:02:00,75.9,55.9,29.62,SW,225,2.0,3.0,50,0.00,,,0.00,meteohub,2013-07-07 03:02:00,
2013-07-06 20:08:00,75.4,55.9,29.62,East,90,2.0,3.0,51,0.00,,,0.00,meteohub,2013-07-07 03:08:00,
2013-07-06 20:13:00,74.7,55.9,29.62,WNW,293,1.0,3.0,52,0.00,,,0.00,meteohub,2013-07-07 03:13:00,
2013-07-06 20:18:00,74.3,56.1,29.62,SW,225,2.0,2.0,53,0.00,,,0.00,meteohub,2013-07-07 03:18:00,
2013-07-06 20:24:00,73.6,55.4,29.62,South,180,2.0,2.0,53,0.00,,,0.00,meteohub,2013-07-07 03:24:00,
2013-07-06 20:29:00,73.2,55.0,29.62,SSE,158,2.0,2.0,53,0.00,,,0.00,meteohub,2013-07-07 03:29:00,
2013-07-06 20:34:00,72.5,54.9,29.62,South,180,1.0,2.0,54,0.00,,,0.00,meteohub,2013-07-07 03:34:00,
2013-07-06 20:40:00,71.8,54.7,29.62,NW,315,1.0,2.0,55,0.00,,,0.00,meteohub,2013-07-07 03:40:00,
2013-07-06 20:45:00,71.4,54.9,29.63,SW,225,2.0,2.0,56,0.00,,,0.00,meteohub,2013-07-07 03:45:00,
2013-07-06 20:50:00,71.4,54.9,29.63,NW,315,2.0,2.0,56,0.00,,,0.00,meteohub,2013-07-07 03:50:00,
2013-07-06 20:56:00,70.5,54.5,29.63,South,180,0.0,2.0,57,0.00,,,0.00,meteohub,2013-07-07 03:56:00,
2013-07-06 21:01:00,70.2,54.7,29.63,South,180,1.0,2.0,58,0.00,,,0.00,meteohub,2013-07-07 04:01:00,
2013-07-06 21:02:00,70.2,54.7,29.63,South,180,1.0,2.0,58,0.00,,,0.00,meteohub,2013-07-07 04:02:00,
2013-07-06 21:03:00,70.2,54.7,29.63,South,180,1.0,2.0,58,0.00,,,0.00,meteohub,2013-07-07 04:03:00,
2013-07-06 21:08:00,69.6,54.7,29.63,West,270,1.0,2.0,59,0.00,,,0.00,meteohub,2013-07-07 04:08:00,
2013-07-06 21:13:00,69.3,54.3,29.63,NE,45,2.0,2.0,59,0.00,,,0.00,meteohub,2013-07-07 04:13:00,
2013-07-06 21:18:00,68.9,54.5,29.63,NW,315,1.0,2.0,60,0.00,,,0.00,meteohub,2013-07-07 04:18:00,
2013-07-06 21:23:00,68.5,54.5,29.63,East,90,1.0,2.0,61,0.00,,,0.00,meteohub,2013-07-07 04:23:00,
2013-07-06 21:29:00,68.2,54.1,29.64,SW,225,0.0,2.0,61,0.00,,,0.00,meteohub,2013-07-07 04:29:00,
2013-07-06 21:34:00,68.0,54.5,29.64,SE,135,0.0,1.0,62,0.00,,,0.00,meteohub,2013-07-07 04:34:00,
2013-07-06 21:39:00,67.5,54.5,29.64,SE,135,2.0,2.0,63,0.00,,,0.00,meteohub,2013-07-07 04:39:00,
2013-07-06 21:44:00,67.1,54.1,29.64,SE,135,1.0,2.0,63,0.00,,,0.00,meteohub,2013-07-07 04:44:00,
2013-07-06 21:49:00,66.7,54.1,29.64,SE,135,1.0,2.0,64,0.00,,,0.00,meteohub,2013-07-07 04:49:00,
2013-07-06 21:54:00,66.4,54.3,29.65,SE,135,2.0,2.0,65,0.00,,,0.00,meteohub,2013-07-07 04:54:00,
2013-07-06 21:59:00,65.8,53.8,29.65,SE,135,0.0,1.0,65,0.00,,,0.00,meteohub,2013-07-07 04:59:00,
2013-07-06 22:04:00,65.8,53.8,29.65,SE,135,0.0,2.0,65,0.00,,,0.00,meteohub,2013-07-07 05:04:00,
2013-07-06 22:09:00,65.7,54.3,29.65,NW,315,1.0,2.0,67,0.00,,,0.00,meteohub,2013-07-07 05:09:00,
2013-07-06 22:14:00,65.5,54.3,29.65,SE,135,0.0,2.0,67,0.00,,,0.00,meteohub,2013-07-07 05:14:00,
2013-07-06 22:19:00,65.3,54.5,29.66,SE,135,1.0,2.0,68,0.00,,,0.00,meteohub,2013-07-07 05:19:00,
2013-07-06 22:25:00,64.9,54.1,29.65,South,180,1.0,2.0,68,0.00,,,0.00,meteohub,2013-07-07 05:25:00,
2013-07-06 22:30:00,64.8,54.0,29.66,East,90,1.0,2.0,68,0.00,,,0.00,meteohub,2013-07-07 05:30:00,
2013-07-06 22:35:00,64.6,54.1,29.66,NE,45,0.0,2.0,69,0.00,,,0.00,meteohub,2013-07-07 05:35:00,
2013-07-06 22:40:00,64.2,54.3,29.66,NW,315,0.0,2.0,70,0.00,,,0.00,meteohub,2013-07-07 05:40:00,
2013-07-06 22:45:00,64.0,54.1,29.66,SW,225,2.0,2.0,70,0.00,,,0.00,meteohub,2013-07-07 05:45:00,
2013-07-06 22:50:00,63.9,54.0,29.66,South,180,1.0,2.0,70,0.00,,,0.00,meteohub,2013-07-07 05:50:00,
2013-07-06 22:55:00,63.7,54.1,29.66,NE,45,1.0,2.0,71,0.00,,,0.00,meteohub,2013-07-07 05:55:00,
2013-07-06 23:00:00,63.5,54.0,29.66,NE,45,0.0,2.0,71,0.00,,,0.00,meteohub,2013-07-07 06:00:00,
2013-07-06 23:02:00,63.5,54.0,29.66,NE,45,0.0,2.0,71,0.00,,,0.00,meteohub,2013-07-07 06:02:00,
2013-07-06 23:12:00,63.3,54.1,29.66,SW,225,2.0,2.0,72,0.00,,,0.00,meteohub,2013-07-07 06:12:00,
2013-07-06 23:17:00,63.1,54.3,29.66,SW,225,0.0,2.0,73,0.00,,,0.00,meteohub,2013-07-07 06:17:00,
2013-07-06 23:22:00,63.0,54.1,29.67,North,0,0.0,2.0,73,0.00,,,0.00,meteohub,2013-07-07 06:22:00,
2013-07-06 23:27:00,62.6,53.8,29.67,SW,225,1.0,2.0,73,0.00,,,0.00,meteohub,2013-07-07 06:27:00,
2013-07-06 23:32:00,62.6,54.1,29.67,SE,135,2.0,2.0,74,0.00,,,0.00,meteohub,2013-07-07 06:32:00,
2013-07-06 23:37:00,62.4,54.0,29.67,South,180,2.0,2.0,74,0.00,,,0.00,meteohub,2013-07-07 06:37:00,
2013-07-06 23:42:00,62.2,54.1,29.67,NE,45,1.0,2.0,75,0.00,,,0.00,meteohub,2013-07-07 06:42:00,
2013-07-06 23:47:00,62.1,54.3,29.67,East,90,2.0,2.0,76,0.00,,,0.00,meteohub,2013-07-07 06:47:00,
2013-07-06 23:52:00,61.9,54.3,29.67,East,90,0.0,2.0,76,0.00,,,0.00,meteohub,2013-07-07 06:52:00,
2013-07-06 23:57:00,61.7,54.1,29.68,SW,225,0.0,2.0,76,0.00,,,0.00,meteohub,2013-07-07 06:57:00,